,,Stat1,,Stat2,,Stat3,,Stat4,,Wind1,,Wind1,
time,status,PR1M_SUM,status,RH1M_AVG,status,SR1M_AVG,status,TA1M_AVG,status,W1dAve1m,status,W1sAve1m,
2000-02-08, 00:00:00,VALID,0,VALID,90.4009,VALID,-0.0339617,VALID,18.0148,VALID,208,VALID,0,
2000-02-08, 00:01:00,VALID,0,VALID,90.4988,VALID,-0.0169808,VALID,18.0215,VALID,212,VALID,0,
2000-02-08, 00:02:01,VALID,0,VALID,90.8701,VALID,0,VALID,18.0277,VALID,210,VALID,0,
2000-02-08, 00:03:01,VALID,0,VALID,91.0393,VALID,0,VALID,18.0406,VALID,208,VALID,0,
2000-02-08, 00:04:00,VALID,0,VALID,91.6509,VALID,-0.0339617,VALID,18.0568,VALID,212,VALID,0,
2000-02-08, 00:05:00,VALID,0,VALID,91.4068,VALID,-0.0339617,VALID,18.0342,VALID,212,VALID,0,
2000-02-08, 00:06:00,VALID,0,VALID,91.4932,VALID,-0.0509425,VALID,18.0152,VALID,216,VALID,0.455929,
2000-02-08, 00:07:00,VALID,0,VALID,91.305,VALID,0,VALID,18.0081,VALID,219,VALID,1.06743,
2000-02-08, 00:08:00,VALID,0,VALID,89.9037,VALID,-0.0169808,VALID,18.0249,VALID,219,VALID,1.29768,
2000-02-08, 00:09:00,VALID,0,VALID,89.0454,VALID,-0.0339617,VALID,18.0925,VALID,211,VALID,1.00021,
2000-02-08, 00:10:00,VALID,0,VALID,89.3099,VALID,0,VALID,18.1827,VALID,198,VALID,0.54387,
2000-02-08, 00:11:00,VALID,0,VALID,89.9915,VALID,0,VALID,18.251,VALID,171,VALID,0.500411,
2000-02-08, 00:12:01,VALID,0,VALID,90.4785,VALID,0,VALID,18.2538,VALID,154,VALID,0.589744,
2000-02-08, 00:13:00,VALID,0,VALID,91.1194,VALID,0,VALID,18.1693,VALID,140,VALID,0.487048,
2000-02-08, 00:14:01,VALID,0,VALID,91.8289,VALID,-0.0169808,VALID,18.0533,VALID,133,VALID,0.48117,
2000-02-08, 00:15:00,VALID,0,VALID,92.3185,VALID,0,VALID,17.9762,VALID,133,VALID,0.407484,
2000-02-08, 00:16:00,VALID,0,VALID,91.9777,VALID,-0.0169808,VALID,17.9407,VALID,141,VALID,0.472356,
2000-02-08, 00:17:00,VALID,0,VALID,92.0019,VALID,-0.0169808,VALID,17.9343,VALID,157,VALID,0.417763,
2000-02-08, 00:18:00,VALID,0,VALID,92.0337,VALID,0,VALID,17.9045,VALID,168,VALID,0.23778,
2000-02-08, 00:19:00,VALID,0,VALID,92.2473,VALID,0.0169808,VALID,17.9114,VALID,168,VALID,0,
2000-02-08, 00:20:00,VALID,0,VALID,92.555,VALID,-0.0169808,VALID,17.9209,VALID,166,VALID,0.0995593,
2000-02-08, 00:21:00,VALID,0,VALID,92.7814,VALID,-0.0339617,VALID,17.905,VALID,138,VALID,0.58861,
2000-02-08, 00:22:00,VALID,0,VALID,92.7801,VALID,-0.0339617,VALID,17.8861,VALID,126,VALID,0.502404,
2000-02-08, 00:23:00,VALID,0,VALID,92.9123,VALID,-0.0169808,VALID,17.8503,VALID,126,VALID,0.121299,
2000-02-08, 00:24:01,VALID,0,VALID,92.864,VALID,-0.0169808,VALID,17.8339,VALID,131,VALID,0,
2000-02-08, 00:25:01,VALID,0,VALID,92.611,VALID,-0.0509425,VALID,17.8434,VALID,150,VALID,0.186883,
2000-02-08, 00:26:00,VALID,0,VALID,92.4164,VALID,-0.0339617,VALID,17.8563,VALID,152,VALID,0.54347,
2000-02-08, 00:27:00,VALID,0,VALID,92.5461,VALID,0,VALID,17.8828,VALID,195,VALID,0.241571,
2000-02-08, 00:28:00,VALID,0,VALID,92.5487,VALID,-0.0169808,VALID,17.8766,VALID,240,VALID,0.465946,
2000-02-08, 00:29:00,VALID,0,VALID,92.761,VALID,-0.0339617,VALID,17.8402,VALID,226,VALID,0.41509,
2000-02-08, 00:30:00,VALID,0,VALID,93.0802,VALID,0,VALID,17.795,VALID,166,VALID,0.743189,
2000-02-08, 00:31:00,VALID,0,VALID,93.5125,VALID,-0.0339617,VALID,17.7084,VALID,137,VALID,1.07134,
2000-02-08, 00:32:00,VALID,0,VALID,93.7173,VALID,-0.0169808,VALID,17.5853,VALID,124,VALID,0.746394,
2000-02-08, 00:33:00,VALID,0,VALID,94.1928,VALID,-0.0509425,VALID,17.5341,VALID,129,VALID,0.742188,
2000-02-08, 00:34:01,VALID,0,VALID,93.6232,VALID,-0.0509425,VALID,17.6439,VALID,145,VALID,0.621394,
2000-02-08, 00:35:00,VALID,0,VALID,92.4469,VALID,-0.0169808,VALID,17.8434,VALID,148,VALID,0.554482,
2000-02-08, 00:36:00,VALID,0,VALID,91.9675,VALID,-0.0509425,VALID,17.9732,VALID,154,VALID,0.415064,
2000-02-08, 00:37:00,VALID,0,VALID,91.7259,VALID,-0.0339617,VALID,18.0309,VALID,155,VALID,0.294202,
2000-02-08, 00:38:00,VALID,0,VALID,91.7018,VALID,-0.0339617,VALID,18.0639,VALID,155,VALID,0.0108173,
2000-02-08, 00:39:00,VALID,0,VALID,91.5034,VALID,-0.0169808,VALID,18.0957,VALID,188,VALID,0.13528,
2000-02-08, 00:40:00,VALID,0,VALID,91.1054,VALID,-0.0339617,VALID,18.1442,VALID,191,VALID,0,
2000-02-08, 00:41:00,VALID,0,VALID,90.8892,VALID,-0.0339617,VALID,18.2346,VALID,191,VALID,0.0842928,
2000-02-08, 00:42:00,VALID,0,VALID,90.4225,VALID,-0.0339617,VALID,18.302,VALID,191,VALID,0,
2000-02-08, 00:43:00,VALID,0,VALID,90.2954,VALID,-0.0169808,VALID,18.3643,VALID,191,VALID,0,
2000-02-08, 00:44:00,VALID,0,VALID,90.1987,VALID,-0.0169808,VALID,18.4379,VALID,191,VALID,0.124399,
2000-02-08, 00:45:00,VALID,0,VALID,89.2438,VALID,0,VALID,18.5834,VALID,191,VALID,0.150493,
2000-02-08, 00:46:01,VALID,0,VALID,89.2094,VALID,0.0509425,VALID,18.666,VALID,189,VALID,0.261418,
2000-02-08, 00:47:00,VALID,0,VALID,88.5673,VALID,0.101885,VALID,18.7661,VALID,204,VALID,0.223067,
2000-02-08, 00:48:00,VALID,0,VALID,88.5138,VALID,0.0339617,VALID,18.8084,VALID,207,VALID,0,
2000-02-08, 00:49:00,VALID,0,VALID,88.6385,VALID,0.0679233,VALID,18.8243,VALID,207,VALID,0,
2000-02-08, 00:50:00,VALID,0,VALID,88.6283,VALID,0.0679233,VALID,18.86,VALID,207,VALID,0,
2000-02-08, 00:51:00,VALID,0,VALID,88.1133,VALID,0.0509425,VALID,18.902,VALID,207,VALID,0,
2000-02-08, 00:52:00,VALID,0,VALID,88.154,VALID,0.0849042,VALID,18.8953,VALID,252,VALID,0,
2000-02-08, 00:53:00,VALID,0,VALID,88.4541,VALID,0.0509425,VALID,18.9053,VALID,295,VALID,0,
2000-02-08, 00:54:00,VALID,0,VALID,88.2379,VALID,0.0509425,VALID,18.9793,VALID,295,VALID,0,
2000-02-08, 00:55:00,VALID,0,VALID,87.7712,VALID,0.0679233,VALID,19.0929,VALID,310,VALID,0.224507,
2000-02-08, 00:56:01,VALID,0,VALID,87.6034,VALID,0.0849042,VALID,19.1085,VALID,314,VALID,0.0989583,
2000-02-08, 00:57:00,VALID,0,VALID,87.377,VALID,0.0849042,VALID,19.0725,VALID,344,VALID,0,
2000-02-08, 00:58:00,VALID,0,VALID,87.5411,VALID,0.0679233,VALID,19.028,VALID,344,VALID,0,
2000-02-08, 00:59:00,VALID,0,VALID,87.7814,VALID,0.101885,VALID,18.9373,VALID,348,VALID,0,
2000-02-08, 01:00:00,VALID,0,VALID,88.9169,VALID,0.0339617,VALID,18.7989,VALID,13,VALID,0,
2000-02-08, 01:01:00,VALID,0,VALID,89.465,VALID,-0.0169808,VALID,18.7549,VALID,338,VALID,0,
2000-02-08, 01:02:00,VALID,0,VALID,89.5807,VALID,-0.0509425,VALID,18.7062,VALID,296,VALID,0,
2000-02-08, 01:03:00,VALID,0,VALID,89.6901,VALID,0,VALID,18.7062,VALID,293,VALID,0,
2000-02-08, 01:04:00,VALID,0,VALID,89.6456,VALID,0,VALID,18.6863,VALID,285,VALID,0,
2000-02-08, 01:05:00,VALID,0,VALID,89.774,VALID,-0.0339617,VALID,18.6736,VALID,285,VALID,0,
2000-02-08, 01:06:00,VALID,0,VALID,90.2153,VALID,-0.0169808,VALID,18.622,VALID,306,VALID,0,
2000-02-08, 01:07:00,VALID,0,VALID,90.6247,VALID,-0.0679233,VALID,18.5121,VALID,305,VALID,0,
2000-02-08, 01:08:01,VALID,0,VALID,90.8752,VALID,-0.0509425,VALID,18.4672,VALID,9,VALID,0,
2000-02-08, 01:09:00,VALID,0,VALID,91.0901,VALID,-0.0679233,VALID,18.4379,VALID,109,VALID,0,
2000-02-08, 01:10:00,VALID,0,VALID,91.1448,VALID,-0.0339617,VALID,18.3737,VALID,127,VALID,0,
2000-02-08, 01:11:00,VALID,0,VALID,91.759,VALID,-0.0509425,VALID,18.2895,VALID,127,VALID,0.379934,
2000-02-08, 01:12:00,VALID,0,VALID,92.204,VALID,0,VALID,18.2284,VALID,117,VALID,0.301883,
2000-02-08, 01:13:00,VALID,0,VALID,92.4304,VALID,-0.0679233,VALID,18.1894,VALID,185,VALID,0,
2000-02-08, 01:14:00,VALID,0,VALID,92.6873,VALID,-0.0509425,VALID,18.1608,VALID,191,VALID,0.00620994,
2000-02-08, 01:15:00,VALID,0,VALID,93.1603,VALID,-0.0339617,VALID,18.1412,VALID,130,VALID,0.200863,
2000-02-08, 01:16:00,VALID,0,VALID,93.3421,VALID,-0.0169808,VALID,18.1246,VALID,127,VALID,0.0783253,
2000-02-08, 01:17:00,VALID,0,VALID,93.6448,VALID,-0.0509425,VALID,18.1375,VALID,149,VALID,0.237664,
2000-02-08, 01:18:01,VALID,0,VALID,93.5697,VALID,0,VALID,18.1474,VALID,133,VALID,0.149239,
2000-02-08, 01:19:00,VALID,0,VALID,93.2366,VALID,0,VALID,18.1543,VALID,111,VALID,0.357113,
2000-02-08, 01:20:00,VALID,0,VALID,92.9556,VALID,0,VALID,18.131,VALID,116,VALID,0.367588,
2000-02-08, 01:21:00,VALID,0,VALID,92.7852,VALID,-0.0339617,VALID,18.0962,VALID,124,VALID,0.285567,
2000-02-08, 01:22:00,VALID,0,VALID,93.2124,VALID,-0.0339617,VALID,18.0279,VALID,128,VALID,0.617388,
2000-02-08, 01:23:00,VALID,0,VALID,93.749,VALID,-0.0509425,VALID,17.9956,VALID,127,VALID,0.525288,
2000-02-08, 01:24:00,VALID,0,VALID,94.1585,VALID,0,VALID,17.9797,VALID,129,VALID,0.510417,
2000-02-08, 01:25:00,VALID,0,VALID,94.8057,VALID,-0.0679233,VALID,17.9832,VALID,130,VALID,0.372944,
2000-02-08, 01:26:00,VALID,0,VALID,94.8668,VALID,-0.101885,VALID,17.9864,VALID,130,VALID,0.257813,
2000-02-08, 01:27:00,VALID,0,VALID,94.98,VALID,-0.0679233,VALID,18.0055,VALID,130,VALID,0.271793,
2000-02-08, 01:28:00,VALID,0,VALID,94.9189,VALID,-0.0509425,VALID,18.0182,VALID,130,VALID,0.20633,
2000-02-08, 01:29:00,VALID,0,VALID,95.0181,VALID,-0.0169808,VALID,18.0279,VALID,130,VALID,0.144531,
2000-02-08, 01:30:01,VALID,0,VALID,94.7854,VALID,-0.0509425,VALID,18.0443,VALID,130,VALID,0,
2000-02-08, 01:31:00,VALID,0,VALID,94.5209,VALID,-0.0339617,VALID,18.0441,VALID,130,VALID,0,
2000-02-08, 01:32:00,VALID,0,VALID,94.4561,VALID,-0.0169808,VALID,18.0279,VALID,130,VALID,0,
2000-02-08, 01:33:00,VALID,0,VALID,94.8604,VALID,0,VALID,18.0217,VALID,130,VALID,0,
2000-02-08, 01:34:00,VALID,0,VALID,95.1109,VALID,-0.0169808,VALID,18.0053,VALID,130,VALID,0.0140224,
2000-02-08, 01:35:00,VALID,0,VALID,93.8152,VALID,-0.0509425,VALID,17.9636,VALID,130,VALID,0.400699,
2000-02-08, 01:36:00,VALID,0,VALID,93.1908,VALID,-0.0339617,VALID,17.8508,VALID,109,VALID,0.784255,
2000-02-08, 01:37:00,VALID,0,VALID,94.7816,VALID,-0.0509425,VALID,17.7536,VALID,90,VALID,1.16036,
2000-02-08, 01:38:00,VALID,0,VALID,95.9349,VALID,-0.0169808,VALID,17.7345,VALID,85,VALID,1.03405,
2000-02-08, 01:39:00,VALID,0,VALID,96.1384,VALID,-0.0509425,VALID,17.7018,VALID,81,VALID,0.913651,
2000-02-08, 01:40:01,VALID,0,VALID,96.1575,VALID,-0.0339617,VALID,17.702,VALID,84,VALID,0.473558,
2000-02-08, 01:41:00,VALID,0,VALID,96.0913,VALID,-0.0339617,VALID,17.702,VALID,84,VALID,0.0285773,
2000-02-08, 01:42:00,VALID,0,VALID,96.1333,VALID,-0.0339617,VALID,17.7151,VALID,84,VALID,0,
2000-02-08, 01:43:00,VALID,0,VALID,96.1562,VALID,-0.0509425,VALID,17.7248,VALID,84,VALID,0,
2000-02-08, 01:44:00,VALID,0,VALID,96.1002,VALID,-0.0339617,VALID,17.7248,VALID,82,VALID,0,
2000-02-08, 01:45:00,VALID,0,VALID,96.1498,VALID,-0.0849042,VALID,17.741,VALID,64,VALID,0,
2000-02-08, 01:46:00,VALID,0,VALID,95.9934,VALID,-0.0339617,VALID,17.7343,VALID,64,VALID,0,
2000-02-08, 01:47:00,VALID,0,VALID,95.8917,VALID,-0.0339617,VALID,17.7407,VALID,79,VALID,0,
2000-02-08, 01:48:00,VALID,0,VALID,95.6259,VALID,-0.0509425,VALID,17.7278,VALID,83,VALID,0,
2000-02-08, 01:49:00,VALID,0,VALID,95.1453,VALID,-0.0509425,VALID,17.7052,VALID,79,VALID,0.0318668,
2000-02-08, 01:50:00,VALID,0,VALID,96.0443,VALID,-0.0509425,VALID,17.7052,VALID,64,VALID,0.726362,
2000-02-08, 01:51:00,VALID,0,VALID,96.5911,VALID,-0.0339617,VALID,17.7472,VALID,81,VALID,0.967105,
2000-02-08, 01:52:01,VALID,0,VALID,96.6992,VALID,-0.0339617,VALID,17.8088,VALID,84,VALID,1.34916,
2000-02-08, 01:53:00,VALID,0,VALID,96.7335,VALID,-0.0169808,VALID,17.8731,VALID,86,VALID,1.36184,
2000-02-08, 01:54:00,VALID,0,VALID,96.2605,VALID,-0.0339617,VALID,17.8791,VALID,90,VALID,0.891226,
2000-02-08, 01:55:00,VALID,0,VALID,96.2617,VALID,-0.0169808,VALID,17.8893,VALID,87,VALID,0.645559,
2000-02-08, 01:56:00,VALID,0,VALID,96.1257,VALID,-0.0849042,VALID,17.8794,VALID,93,VALID,0.298478,
2000-02-08, 01:57:00,VALID,0,VALID,96.216,VALID,-0.0339617,VALID,17.8957,VALID,66,VALID,0.147821,
2000-02-08, 01:58:00,VALID,0,VALID,96.4169,VALID,-0.0509425,VALID,17.9315,VALID,73,VALID,0,
2000-02-08, 01:59:00,VALID,0,VALID,95.9566,VALID,-0.0169808,VALID,17.9382,VALID,194,VALID,0,
2000-02-08, 02:00:00,VALID,0,VALID,95.4911,VALID,-0.0509425,VALID,17.9151,VALID,228,VALID,0,
2000-02-08, 02:01:00,VALID,0,VALID,95.6971,VALID,-0.0339617,VALID,17.8923,VALID,258,VALID,0,
2000-02-08, 02:02:01,VALID,0,VALID,96.1066,VALID,-0.0339617,VALID,17.919,VALID,256,VALID,0,
2000-02-08, 02:03:00,VALID,0,VALID,95.6971,VALID,-0.0509425,VALID,17.8861,VALID,229,VALID,0,
2000-02-08, 02:04:00,VALID,0,VALID,95.9159,VALID,-0.0509425,VALID,17.89,VALID,228,VALID,0,
2000-02-08, 02:05:00,VALID,0,VALID,96.2948,VALID,-0.0509425,VALID,17.8729,VALID,228,VALID,0,
2000-02-08, 02:06:00,VALID,0,VALID,96.5402,VALID,-0.0339617,VALID,17.8634,VALID,228,VALID,0,
2000-02-08, 02:07:00,VALID,0,VALID,96.6343,VALID,-0.0339617,VALID,17.8634,VALID,228,VALID,0,
2000-02-08, 02:08:00,VALID,0,VALID,96.6852,VALID,-0.0339617,VALID,17.8602,VALID,228,VALID,0,
2000-02-08, 02:09:00,VALID,0,VALID,96.352,VALID,-0.0509425,VALID,17.851,VALID,228,VALID,0,
2000-02-08, 02:10:00,VALID,0,VALID,95.158,VALID,-0.0339617,VALID,17.7896,VALID,228,VALID,0,
2000-02-08, 02:11:00,VALID,0,VALID,94.7854,VALID,-0.0169808,VALID,17.7571,VALID,207,VALID,0,
2000-02-08, 02:12:00,VALID,0,VALID,94.8909,VALID,-0.0509425,VALID,17.7087,VALID,150,VALID,0,
2000-02-08, 02:13:00,VALID,0,VALID,94.8693,VALID,-0.0339617,VALID,17.6471,VALID,150,VALID,0,
2000-02-08, 02:14:01,VALID,0,VALID,95.2152,VALID,-0.0339617,VALID,17.586,VALID,135,VALID,0,
2000-02-08, 02:15:00,VALID,0,VALID,95.8637,VALID,-0.0169808,VALID,17.5564,VALID,107,VALID,0,
2000-02-08, 02:16:00,VALID,0,VALID,96.4843,VALID,0.0339617,VALID,17.539,VALID,105,VALID,0,
2000-02-08, 02:17:00,VALID,0,VALID,96.8734,VALID,0.0169808,VALID,17.5655,VALID,105,VALID,0,
2000-02-08, 02:18:00,VALID,0,VALID,96.998,VALID,0.0679233,VALID,17.5683,VALID,106,VALID,0,
2000-02-08, 02:19:00,VALID,0,VALID,96.9624,VALID,0.0509425,VALID,17.5745,VALID,120,VALID,0,
2000-02-08, 02:20:00,VALID,0,VALID,96.998,VALID,0.101885,VALID,17.5842,VALID,169,VALID,0,
2000-02-08, 02:21:00,VALID,0,VALID,96.6979,VALID,0.0509425,VALID,17.5717,VALID,225,VALID,0,
2000-02-08, 02:22:00,VALID,0,VALID,96.4665,VALID,0.0849042,VALID,17.5685,VALID,226,VALID,0,
2000-02-08, 02:23:00,VALID,0,VALID,96.3342,VALID,0.0509425,VALID,17.5556,VALID,226,VALID,0,
2000-02-08, 02:24:01,VALID,0,VALID,96.3406,VALID,0.0169808,VALID,17.5655,VALID,225,VALID,0,
2000-02-08, 02:25:01,VALID,0,VALID,96.6483,VALID,0.0679233,VALID,17.5683,VALID,191,VALID,0,
2000-02-08, 02:26:00,VALID,0,VALID,96.8047,VALID,0.0849042,VALID,17.5722,VALID,187,VALID,0,
2000-02-08, 02:27:00,VALID,0,VALID,96.9331,VALID,0.0849042,VALID,17.5883,VALID,187,VALID,0,
2000-02-08, 02:28:00,VALID,0,VALID,97.3057,VALID,0.0679233,VALID,17.6107,VALID,187,VALID,0,
2000-02-08, 02:29:00,VALID,0,VALID,97.5906,VALID,0.0509425,VALID,17.6458,VALID,187,VALID,0,
2000-02-08, 02:30:00,VALID,0,VALID,97.4812,VALID,0.0849042,VALID,17.6589,VALID,187,VALID,0,
2000-02-08, 02:31:00,VALID,0,VALID,97.2447,VALID,-0.0339617,VALID,17.6667,VALID,187,VALID,0,
2000-02-08, 02:32:00,VALID,0,VALID,96.4525,VALID,-0.0339617,VALID,17.6053,VALID,158,VALID,0,
2000-02-08, 02:33:00,VALID,0,VALID,96.5326,VALID,-0.0849042,VALID,17.5666,VALID,144,VALID,0,
2000-02-08, 02:34:00,VALID,0,VALID,96.8607,VALID,-0.0849042,VALID,17.5767,VALID,144,VALID,0,
2000-02-08, 02:35:00,VALID,0,VALID,97.3273,VALID,-0.0849042,VALID,17.6221,VALID,144,VALID,0,
2000-02-08, 02:36:01,VALID,0,VALID,97.4024,VALID,-0.0849042,VALID,17.642,VALID,144,VALID,0,
2000-02-08, 02:37:00,VALID,0,VALID,97.2587,VALID,-0.0679233,VALID,17.6516,VALID,144,VALID,0,
2000-02-08, 02:38:00,VALID,0,VALID,96.394,VALID,-0.0509425,VALID,17.5896,VALID,142,VALID,0,
2000-02-08, 02:39:00,VALID,0,VALID,95.9629,VALID,-0.0679233,VALID,17.5603,VALID,119,VALID,0,
2000-02-08, 02:40:00,VALID,0,VALID,96.0341,VALID,-0.0509425,VALID,17.5347,VALID,103,VALID,0.519832,
2000-02-08, 02:41:00,VALID,0,VALID,96.9624,VALID,-0.0849042,VALID,17.5509,VALID,95,VALID,1.23623,
2000-02-08, 02:42:00,VALID,0,VALID,97.4049,VALID,-0.0679233,VALID,17.5892,VALID,93,VALID,0.99379,
2000-02-08, 02:43:00,VALID,0,VALID,97.4469,VALID,-0.0509425,VALID,17.6116,VALID,91,VALID,0.886513,
2000-02-08, 02:44:00,VALID,0,VALID,97.3706,VALID,-0.0339617,VALID,17.6383,VALID,84,VALID,1.03606,
2000-02-08, 02:45:00,VALID,0,VALID,97.513,VALID,-0.0679233,VALID,17.6639,VALID,93,VALID,0.824836,
2000-02-08, 02:46:01,VALID,0,VALID,97.5359,VALID,-0.0339617,VALID,17.7022,VALID,106,VALID,0.690304,
2000-02-08, 02:47:01,VALID,0,VALID,97.3413,VALID,-0.0169808,VALID,17.7246,VALID,122,VALID,0.849095,
2000-02-08, 02:48:00,VALID,0,VALID,97.1926,VALID,-0.0849042,VALID,17.7769,VALID,137,VALID,0.576322,
2000-02-08, 02:49:00,VALID,0,VALID,96.9459,VALID,-0.0509425,VALID,17.8124,VALID,134,VALID,0.532278,
2000-02-08, 02:50:00,VALID,0,VALID,96.7335,VALID,-0.0339617,VALID,17.8348,VALID,136,VALID,0.0747195,
2000-02-08, 02:51:00,VALID,0,VALID,96.6763,VALID,-0.0169808,VALID,17.8574,VALID,136,VALID,0,
2000-02-08, 02:52:00,VALID,0,VALID,96.5517,VALID,-0.0679233,VALID,17.8734,VALID,136,VALID,0,
2000-02-08, 02:53:00,VALID,0,VALID,96.1804,VALID,-0.0509425,VALID,17.89,VALID,136,VALID,0,
2000-02-08, 02:54:00,VALID,0,VALID,96.1066,VALID,-0.101885,VALID,17.8966,VALID,136,VALID,0.00340545,
2000-02-08, 02:55:00,VALID,0,VALID,95.9553,VALID,-0.0679233,VALID,17.916,VALID,134,VALID,0.0764803,
2000-02-08, 02:56:00,VALID,0,VALID,95.7582,VALID,-0.0679233,VALID,17.922,VALID,134,VALID,0.00120192,
2000-02-08, 02:57:00,VALID,0,VALID,95.8434,VALID,-0.0849042,VALID,17.9322,VALID,147,VALID,0.00328947,
2000-02-08, 02:58:01,VALID,0,VALID,95.9298,VALID,-0.101885,VALID,17.9543,VALID,150,VALID,0.0240385,
2000-02-08, 02:59:00,VALID,0,VALID,95.9591,VALID,-0.0339617,VALID,17.9675,VALID,150,VALID,0.0170641,
2000-02-08, 03:00:00,VALID,0,VALID,95.7823,VALID,-0.0679233,VALID,17.9573,VALID,175,VALID,0.163462,
2000-02-08, 03:01:00,VALID,0,VALID,95.9451,VALID,-0.0339617,VALID,17.9705,VALID,127,VALID,0.551604,
2000-02-08, 03:02:00,VALID,0,VALID,95.7722,VALID,-0.0679233,VALID,17.9933,VALID,151,VALID,0.51222,
2000-02-08, 03:03:00,VALID,0,VALID,94.7371,VALID,-0.0679233,VALID,17.9511,VALID,143,VALID,0.165502,
2000-02-08, 03:04:00,VALID,0,VALID,95.7111,VALID,-0.0509425,VALID,17.9545,VALID,128,VALID,0.526843,
2000-02-08, 03:05:00,VALID,0,VALID,96.1893,VALID,-0.0339617,VALID,18.0127,VALID,114,VALID,0.197985,
2000-02-08, 03:06:00,VALID,0,VALID,95.9756,VALID,-0.0169808,VALID,18.0284,VALID,142,VALID,0.141026,
2000-02-08, 03:07:00,VALID,0,VALID,95.9629,VALID,-0.0339617,VALID,18.0512,VALID,164,VALID,0,
2000-02-08, 03:08:01,VALID,0,VALID,95.9883,VALID,-0.0339617,VALID,18.0669,VALID,195,VALID,0,
2000-02-08, 03:09:01,VALID,0,VALID,95.7429,VALID,-0.0679233,VALID,18.0736,VALID,205,VALID,0,
2000-02-08, 03:10:00,VALID,0,VALID,95.6285,VALID,-0.0509425,VALID,18.0634,VALID,217,VALID,0,
2000-02-08, 03:11:00,VALID,0,VALID,95.4276,VALID,-0.0509425,VALID,18.0639,VALID,204,VALID,0,
2000-02-08, 03:12:00,VALID,0,VALID,95.4733,VALID,-0.0509425,VALID,18.0443,VALID,191,VALID,0.342949,
2000-02-08, 03:13:00,VALID,0,VALID,96.1155,VALID,-0.0339617,VALID,18.0542,VALID,180,VALID,0.382196,
2000-02-08, 03:14:00,VALID,0,VALID,96.174,VALID,-0.0169808,VALID,18.0443,VALID,180,VALID,0,
2000-02-08, 03:15:00,VALID,0,VALID,96.16,VALID,0,VALID,18.0538,VALID,185,VALID,0,
2000-02-08, 03:16:00,VALID,0,VALID,95.8319,VALID,0.0849042,VALID,18.0272,VALID,274,VALID,0,
2000-02-08, 03:17:00,VALID,0,VALID,95.9248,VALID,0.0509425,VALID,18.0339,VALID,266,VALID,0,
2000-02-08, 03:18:01,VALID,0,VALID,96.1448,VALID,0.0509425,VALID,18.0399,VALID,266,VALID,0,
2000-02-08, 03:19:00,VALID,0,VALID,96.3088,VALID,0.101885,VALID,18.0397,VALID,260,VALID,0,
2000-02-08, 03:20:01,VALID,0,VALID,95.7582,VALID,0.0679233,VALID,18.0072,VALID,192,VALID,0,
2000-02-08, 03:21:00,VALID,0,VALID,95.7442,VALID,0.0849042,VALID,18.001,VALID,169,VALID,0,
2000-02-08, 03:22:00,VALID,0,VALID,96.455,VALID,0.0509425,VALID,18.001,VALID,166,VALID,0,
2000-02-08, 03:23:00,VALID,0,VALID,96.675,VALID,0.0679233,VALID,18.0166,VALID,168,VALID,0,
2000-02-08, 03:24:00,VALID,0,VALID,96.9446,VALID,0.0509425,VALID,18.066,VALID,154,VALID,0,
2000-02-08, 03:25:00,VALID,0,VALID,96.7882,VALID,0.0509425,VALID,18.1207,VALID,106,VALID,0,
2000-02-08, 03:26:00,VALID,0,VALID,96.7004,VALID,0.0679233,VALID,18.1562,VALID,82,VALID,0.234575,
2000-02-08, 03:27:00,VALID,0,VALID,96.5313,VALID,0.0679233,VALID,18.1818,VALID,80,VALID,0.445518,
2000-02-08, 03:28:00,VALID,0,VALID,96.4118,VALID,0.0339617,VALID,18.2143,VALID,89,VALID,0.532452,
2000-02-08, 03:29:00,VALID,0,VALID,96.3406,VALID,0.0509425,VALID,18.2337,VALID,92,VALID,0.55222,
2000-02-08, 03:30:01,VALID,0,VALID,96.1257,VALID,0.0509425,VALID,18.2335,VALID,92,VALID,0.626402,
2000-02-08, 03:31:01,VALID,0,VALID,96.1626,VALID,0,VALID,18.2482,VALID,92,VALID,0.712582,
2000-02-08, 03:32:00,VALID,0,VALID,96.1219,VALID,0,VALID,18.2448,VALID,97,VALID,0.755609,
2000-02-08, 03:33:00,VALID,0,VALID,96.2897,VALID,-0.0169808,VALID,18.2575,VALID,110,VALID,1.00226,
2000-02-08, 03:34:00,VALID,0,VALID,96.1448,VALID,0,VALID,18.2542,VALID,105,VALID,1.24539,
2000-02-08, 03:35:00,VALID,0,VALID,96.2884,VALID,0,VALID,18.2508,VALID,104,VALID,0.928454,
2000-02-08, 03:36:00,VALID,0,VALID,96.1041,VALID,-0.0169808,VALID,18.2415,VALID,113,VALID,0.823918,
2000-02-08, 03:37:00,VALID,0,VALID,96.3635,VALID,0,VALID,18.2478,VALID,103,VALID,0.858553,
2000-02-08, 03:38:00,VALID,0,VALID,96.4868,VALID,0.0169808,VALID,18.2538,VALID,118,VALID,1.00942,
2000-02-08, 03:39:00,VALID,0,VALID,96.6152,VALID,0.0169808,VALID,18.2858,VALID,122,VALID,1.07093,
2000-02-08, 03:40:01,VALID,0,VALID,96.8174,VALID,0.0169808,VALID,18.3576,VALID,131,VALID,0.971354,
2000-02-08, 03:41:00,VALID,0,VALID,96.7093,VALID,0,VALID,18.4152,VALID,134,VALID,1.22903,
2000-02-08, 03:42:00,VALID,0,VALID,96.5211,VALID,0.0169808,VALID,18.4672,VALID,125,VALID,1.18189,
2000-02-08, 03:43:00,VALID,0,VALID,96.3482,VALID,0,VALID,18.5285,VALID,123,VALID,1.43359,
2000-02-08, 03:44:00,VALID,0,VALID,96.1193,VALID,0,VALID,18.5641,VALID,94,VALID,1.34776,
2000-02-08, 03:45:00,VALID,0,VALID,96.1219,VALID,0,VALID,18.5901,VALID,94,VALID,1.0734,
2000-02-08, 03:46:00,VALID,0,VALID,95.7607,VALID,-0.0169808,VALID,18.5834,VALID,97,VALID,0.988181,
2000-02-08, 03:47:00,VALID,0,VALID,96.0634,VALID,-0.0169808,VALID,18.5737,VALID,83,VALID,1.00288,
2000-02-08, 03:48:00,VALID,0,VALID,96.1778,VALID,-0.0169808,VALID,18.58,VALID,83,VALID,1.16006,
2000-02-08, 03:49:00,VALID,0,VALID,96.3571,VALID,0.0169808,VALID,18.6217,VALID,80,VALID,1.27035,
2000-02-08, 03:50:00,VALID,0,VALID,96.2096,VALID,0,VALID,18.6379,VALID,87,VALID,1.0601,
2000-02-08, 03:51:00,VALID,0,VALID,96.1626,VALID,0,VALID,18.6446,VALID,78,VALID,1.11287,
2000-02-08, 03:52:01,VALID,0,VALID,96.1702,VALID,0.0169808,VALID,18.6642,VALID,85,VALID,1.22456,
2000-02-08, 03:53:00,VALID,0,VALID,96.0519,VALID,0.0169808,VALID,18.664,VALID,89,VALID,1.25905,
2000-02-08, 03:54:00,VALID,0,VALID,95.8497,VALID,0,VALID,18.6478,VALID,82,VALID,1.09215,
2000-02-08, 03:55:00,VALID,0,VALID,95.8841,VALID,0.0169808,VALID,18.6349,VALID,93,VALID,1.17804,
2000-02-08, 03:56:00,VALID,0,VALID,95.907,VALID,0,VALID,18.622,VALID,87,VALID,1.22656,
2000-02-08, 03:57:00,VALID,0,VALID,96.0278,VALID,0,VALID,18.6153,VALID,90,VALID,1.26316,
2000-02-08, 03:58:00,VALID,0,VALID,96.0863,VALID,0,VALID,18.6351,VALID,85,VALID,0.98117,
2000-02-08, 03:59:00,VALID,0,VALID,96.1422,VALID,0,VALID,18.6443,VALID,86,VALID,1.28639,
2000-02-08, 04:00:00,VALID,0,VALID,96.113,VALID,0,VALID,18.6446,VALID,83,VALID,1.14163,
2000-02-08, 04:01:00,VALID,0,VALID,96.3024,VALID,0,VALID,18.651,VALID,88,VALID,1.52714,
2000-02-08, 04:02:01,VALID,0,VALID,96.2147,VALID,0.0169808,VALID,18.6769,VALID,84,VALID,1.16687,
2000-02-08, 04:03:00,VALID,0,VALID,96.015,VALID,0,VALID,18.6831,VALID,83,VALID,1.50329,
2000-02-08, 04:04:00,VALID,0,VALID,95.9451,VALID,0.0169808,VALID,18.6699,VALID,83,VALID,1.06611,
2000-02-08, 04:05:00,VALID,0,VALID,96.0112,VALID,0,VALID,18.6796,VALID,75,VALID,1.02529,
2000-02-08, 04:06:00,VALID,0,VALID,96.0278,VALID,0.0169808,VALID,18.6997,VALID,71,VALID,0.770032,
2000-02-08, 04:07:00,VALID,0,VALID,95.9947,VALID,0,VALID,18.7154,VALID,72,VALID,0.936266,
2000-02-08, 04:08:00,VALID,0,VALID,95.9146,VALID,0,VALID,18.7089,VALID,82,VALID,0.824319,